Wind_Speed
24 28 32 30 33 34 30 25 22 20 17 14 10 10 9 8 9 7 7 7 7 6 6 7 10 11 13 17 16 17 19 16 13 8 9 12 19 26 27 25 22 19 17 15 12
30 25 20 30 36 36 32 27 25 21 20 17 14 12 9 10 11 8 9 9 8 7 9 10 8 7 8 10 16 17 17 14 12 8 6 15 19 28 27 23 17 21 22 23 21
21 27 22 29 30 38 31 28 25 24 22 20 17 13 11 12 11 10 10 10 10 10 10 11 12 6 6 7 11 8 12 8 9 8 8 10 23 22 26 27 18 19 23 26 24
26 24 24 30 30 30 32 30 30 25 22 18 16 12 13 12 11 12 11 11 11 11 11 8 8 8 7 7 9 11 8 5 8 10 6 20 26 30 28 24 18 19 25 27 14
30 23 23 24 30 32 32 30 30 27 23 19 16 13 13 12 12 13 12 11 12 13 11 7 5 3 4 6 10 9 8 6 5 11 10 16 29 35 30 32 20 22 24 21 25
29 27 23 29 28 24 29 26 26 26 22 19 16 13 13 12 12 12 12 10 13 13 8 4 5 4 4 9 13 11 6 6 6 10 13 11 12 15 21 21 16 21 21 22 27
33 31 25 28 27 22 21 22 22 22 21 18 16 13 14 14 14 13 12 13 12 11 11 9 5 8 10 9 7 7 6 3 3 10 14 8 9 9 11 14 16 15 23 22 25
28 31 26 24 26 23 21 20 15 16 18 18 15 14 17 15 14 14 14 14 14 11 9 7 8 11 8 5 8 8 10 12 2 3 4 4 9 13 12 15 20 15 20 22 26
24 28 28 26 25 24 23 23 17 13 14 17 16 18 17 16 16 15 15 14 12 12 9 8 11 11 8 9 7 8 4 2 6 13 11 15 9 10 12 19 23 25 25 33 30
20 23 22 22 24 25 23 24 20 12 11 15 17 17 18 18 17 16 15 13 11 10 11 12 13 13 9 9 9 5 6 3 6 7 15 12 10 14 16 20 22 28 27 29 28
19 19 20 22 24 25 23 20 19 17 14 14 16 18 17 18 18 17 16 15 14 12 12 13 13 9 7 12 12 10 9 1 5 12 16 14 11 8 12 14 24 33 37 38 28
13 18 20 22 23 24 21 17 25 22 17 16 17 17 17 16 18 18 17 16 14 14 14 16 17 14 14 14 13 13 4 3 6 12 18 10 5 6 3 8 15 20 26 26 28
14 20 17 19 21 26 27 23 17 20 20 18 20 20 19 16 18 18 18 16 13 14 16 16 13 19 14 8 16 22 16 8 16 22 6 5 5 5 6 14 18 21 22 20 14
17 21 19 19 24 29 28 19 15 17 18 19 18 18 17 16 18 18 18 17 16 19 18 20 18 17 11 8 14 26 25 26 19 20 19 8 6 5 9 14 16 25 22 18 14
19 20 22 20 24 27 22 18 18 16 17 16 17 17 18 19 19 20 17 17 17 18 19 20 18 12 13 14 15 7 11 9 10 15 6 11 14 5 9 8 14 21 14 13 11
23 24 25 24 24 25 21 22 18 17 14 14 17 18 19 19 20 18 18 18 17 15 19 23 17 17 16 15 17 13 12 9 10 14 7 11 17 13 13 7 7 14 11 8 7
24 24 27 28 25 24 26 20 19 17 16 15 16 18 21 20 20 18 18 18 17 17 20 22 16 17 15 12 16 16 17 17 15 13 1 9 9 12 15 11 11 9 13 7 5
27 28 24 32 24 26 25 22 19 17 21 21 17 18 18 20 18 17 19 19 22 19 20 23 17 15 10 13 12 15 15 16 16 8 8 13 11 14 17 13 11 11 16 10 10
26 28 23 32 27 28 27 23 24 26 23 26 24 15 14 16 19 18 20 20 18 20 24 24 23 14 14 13 11 13 15 16 12 8 16 16 13 17 21 23 21 19 21 16 17
24 27 31 26 30 29 28 26 33 29 23 20 18 11 6 13 18 17 19 17 17 23 27 23 18 17 15 16 12 13 18 18 16 12 17 17 16 17 19 23 26 29 27 28 27
24 29 32 31 27 34 30 28 36 34 27 25 23 18 17 19 18 14 7 13 17 25 28 26 20 20 19 22 17 14 17 18 17 18 21 18 16 17 21 25 30 28 28 33 38
28 30 33 34 32 40 36 31 37 39 35 33 32 25 22 21 18 16 9 15 22 30 30 24 21 21 17 16 15 14 14 16 16 11 17 20 25 27 26 23 18 26 28 31 42
31 33 34 35 30 30 35 36 39 41 44 40 36 31 29 27 23 21 21 18 20 22 22 22 24 27 26 27 29 28 26 19 20 20 22 21 20 25 26 24 28 34 34 41 42
35 34 35 36 33 31 41 38 35 40 45 44 41 34 34 32 31 28 29 29 23 22 25 27 26 25 25 33 36 38 33 27 25 26 27 23 24 25 30 35 40 42 39 42 41
37 38 35 36 38 33 36 41 40 39 45 47 44 38 38 36 38 37 34 31 32 29 32 32 32 25 21 27 29 30 28 27 29 30 30 28 30 33 31 31 33 39 43 45 47
40 41 36 35 36 38 38 40 36 39 46 42 41 39 44 40 42 43 42 39 38 39 37 36 33 26 23 25 29 29 28 29 30 33 37 37 37 40 40 40 39 38 39 42 44
40 39 37 36 36 38 42 40 46 45 46 40 37 40 40 43 43 46 46 46 41 43 40 38 37 33 31 29 30 30 27 32 35 36 38 39 40 41 40 39 36 35 36 36 37
Wind_Direction
241 232 231 229 232 237 236 235 240 245 250 258 262 265 275 275 253 246 224 196 190 157 139 127 133 131 138 137 162 167 186 209 216 162 135 274 288 302 315 325 346 342 332 351 348
228 245 244 230 232 234 236 236 236 240 247 263 262 262 256 254 244 233 211 193 190 170 158 138 139 131 146 148 165 180 206 223 229 223 143 279 276 285 294 319 333 336 332 334 334
221 250 271 243 231 229 230 233 239 244 253 261 263 258 242 239 230 218 206 194 192 172 174 170 148 162 175 159 174 202 205 278 289 317 215 214 276 284 291 302 322 330 327 328 329
217 238 257 252 233 225 230 234 239 250 255 258 258 242 229 227 217 210 200 198 190 180 192 194 176 172 221 194 196 202 220 255 288 298 295 216 262 272 280 297 309 306 324 336 269
229 224 248 258 243 234 237 238 242 249 251 256 249 238 223 217 214 209 198 197 195 194 192 192 177 184 223 226 234 228 238 270 302 303 321 239 252 266 273 278 290 316 326 327 334
229 219 225 250 240 234 238 239 241 246 243 244 240 227 219 206 202 203 200 203 199 188 189 197 178 196 232 232 221 222 207 238 233 252 270 274 271 260 250 266 301 321 324 328 336
226 222 217 238 233 233 231 232 234 235 232 232 227 210 209 201 196 193 195 199 197 191 179 182 178 226 233 218 211 207 182 141 259 267 286 267 249 211 238 284 308 320 308 324 328
224 227 230 230 234 233 224 221 219 220 218 217 207 195 207 195 193 188 189 191 197 192 184 183 209 226 213 185 169 151 97 123 95 63 13 211 266 277 290 281 299 320 329 330 315
231 232 231 222 239 236 221 216 206 207 210 208 199 197 196 193 189 193 190 193 196 191 195 206 212 221 187 165 160 153 194 108 355 30 4 319 306 302 309 316 306 309 308 312 310
242 235 235 219 230 225 214 212 213 215 214 210 202 199 196 192 192 192 190 187 188 212 207 209 199 214 176 193 171 167 143 331 311 353 340 331 305 309 312 330 317 309 315 320 316
242 249 216 212 219 217 217 217 213 214 217 214 214 199 201 199 188 194 191 192 191 200 213 212 202 187 153 188 177 90 65 333 342 332 314 321 316 289 318 315 330 338 322 313 311
245 231 209 212 214 214 208 206 213 212 210 212 199 208 198 205 196 195 192 194 203 206 210 209 204 189 188 166 149 116 241 272 288 294 289 334 337 51 355 347 338 331 335 319 299
247 221 218 218 214 214 210 210 211 218 207 206 205 195 195 192 203 198 192 198 201 216 221 219 197 186 170 137 167 171 199 226 254 262 321 317 353 9 12 3 4 352 341 342 323
240 231 215 214 216 216 211 209 214 218 210 205 201 199 195 196 200 201 195 198 202 215 228 226 218 186 157 159 194 194 209 217 238 271 288 260 204 58 5 349 4 355 339 333 336
240 246 209 222 216 213 206 200 211 204 212 206 198 197 197 196 203 197 202 206 209 226 234 241 192 171 194 199 203 207 200 216 235 257 225 268 281 299 24 13 1 342 339 343 339
234 238 221 221 218 206 205 204 204 193 205 205 204 203 202 199 203 206 197 201 221 229 249 243 197 190 204 207 216 194 186 195 216 227 235 292 297 255 277 352 341 330 310 314 319
225 226 234 215 212 201 208 205 198 187 193 193 198 203 202 199 200 203 208 208 214 218 234 228 203 211 210 226 227 215 212 207 230 246 275 292 294 286 269 282 321 283 308 317 300
216 216 240 202 206 197 198 200 186 187 205 191 187 200 207 208 199 206 213 210 216 211 220 215 206 202 209 217 228 240 232 235 246 245 242 269 281 277 280 287 297 274 279 279 340
219 211 223 206 199 204 199 191 175 180 192 206 191 175 198 213 215 206 215 208 210 210 204 213 216 219 200 211 225 247 267 253 272 265 257 269 279 277 285 307 326 315 296 326 330
217 210 213 231 208 205 199 183 177 189 186 207 181 173 212 215 222 200 210 210 207 202 204 210 217 222 239 242 243 269 249 244 253 240 250 271 286 291 298 310 305 307 317 324 325
214 215 215 217 219 206 190 185 185 191 185 192 203 182 188 203 203 195 186 201 198 201 213 207 210 223 233 246 252 252 245 248 247 251 232 260 277 289 291 296 301 314 319 316 315
216 217 213 220 219 211 191 192 190 197 187 194 219 189 192 196 205 198 215 223 202 206 213 213 219 234 230 246 249 265 241 248 252 253 249 250 266 281 285 297 313 306 299 296 306
213 217 213 216 219 212 196 194 197 203 198 202 217 198 205 198 210 215 219 242 228 223 226 221 222 234 247 248 260 271 273 257 256 259 267 258 258 264 278 280 274 280 279 286 295
212 217 212 211 214 208 198 198 203 208 209 205 217 213 210 206 204 215 214 223 237 232 243 254 246 238 239 246 255 266 269 264 266 259 258 262 240 242 255 263 272 280 285 286 290
213 217 215 212 216 209 208 196 209 209 220 214 214 224 211 211 208 215 215 219 223 232 240 245 255 253 245 241 253 257 262 269 274 273 275 275 276 268 258 266 272 278 281 283 289
213 218 216 216 218 214 213 204 211 214 223 222 217 218 220 218 217 220 224 226 229 231 238 245 256 268 273 269 260 259 265 269 266 266 275 279 281 282 287 290 288 283 281 283 284
213 219 215 214 215 215 217 208 212 216 225 225 222 224 221 223 224 223 230 236 242 242 245 250 259 267 274 270 262 257 256 258 261 262 266 269 271 276 281 285 288 286 285 285 287
Height
5880 5883 5884 5886 5890 5892 5893 5894 5895 5898 5898 5898 5898 5899 5900 5900 5901 5901 5903 5905 5906 5906 5907 5908 5908 5906 5906 5906 5909 5909 5909 5907 5906 5906 5905 5904 5905 5903 5901 5899 5898 5899 5900 5900 5904
5874 5879 5879 5882 5884 5887 5889 5890 5891 5893 5895 5895 5896 5897 5898 5898 5898 5899 5901 5902 5905 5905 5906 5907 5909 5909 5907 5906 5907 5908 5908 5907 5905 5903 5903 5903 5903 5904 5902 5899 5899 5899 5897 5896 5897
5867 5873 5875 5877 5879 5881 5884 5885 5887 5890 5891 5892 5893 5894 5895 5895 5896 5897 5899 5901 5903 5904 5905 5905 5906 5909 5908 5906 5907 5907 5908 5907 5905 5904 5903 5904 5897 5900 5899 5899 5899 5898 5896 5894 5892
5862 5867 5870 5873 5874 5876 5879 5881 5883 5885 5887 5889 5890 5891 5892 5892 5895 5895 5896 5899 5901 5902 5903 5904 5904 5906 5907 5906 5906 5906 5907 5906 5904 5902 5903 5904 5897 5898 5898 5897 5895 5892 5893 5892 5886
5858 5860 5865 5869 5870 5872 5875 5877 5879 5881 5883 5885 5887 5888 5888 5890 5891 5893 5895 5897 5899 5900 5902 5904 5904 5906 5907 5906 5907 5907 5906 5905 5904 5902 5903 5905 5903 5900 5897 5895 5893 5892 5893 5891 5890
5852 5855 5858 5863 5866 5867 5870 5872 5874 5877 5879 5882 5883 5884 5885 5887 5889 5891 5893 5895 5897 5899 5902 5904 5903 5906 5907 5907 5906 5904 5903 5904 5904 5902 5899 5900 5900 5898 5895 5890 5892 5892 5890 5888 5887
5847 5848 5851 5859 5862 5865 5866 5868 5870 5873 5875 5878 5879 5881 5882 5885 5887 5889 5891 5893 5896 5898 5899 5901 5900 5904 5904 5903 5903 5903 5900 5902 5902 5899 5896 5897 5895 5888 5889 5887 5890 5891 5890 5888 5886
5842 5845 5848 5852 5857 5860 5862 5863 5866 5868 5871 5874 5876 5877 5878 5882 5885 5887 5889 5891 5894 5895 5896 5897 5899 5901 5900 5900 5901 5900 5900 5900 5900 5899 5897 5895 5892 5889 5889 5886 5885 5887 5886 5887 5885
5837 5841 5843 5847 5852 5855 5856 5859 5863 5865 5868 5870 5872 5873 5877 5880 5882 5885 5887 5889 5891 5892 5893 5895 5897 5897 5897 5897 5898 5898 5897 5898 5897 5896 5897 5896 5892 5891 5889 5886 5884 5884 5889 5887 5885
5833 5836 5838 5840 5847 5850 5852 5856 5860 5863 5865 5867 5869 5873 5875 5878 5880 5882 5885 5887 5889 5890 5891 5893 5894 5895 5895 5896 5897 5895 5895 5895 5895 5894 5897 5897 5898 5892 5889 5887 5886 5886 5884 5880 5881
5830 5831 5832 5837 5842 5844 5849 5854 5858 5861 5861 5865 5868 5869 5872 5875 5877 5880 5882 5884 5886 5888 5889 5890 5891 5892 5895 5896 5895 5895 5893 5894 5892 5894 5896 5896 5897 5898 5897 5894 5886 5880 5878 5877 5877
5824 5827 5829 5833 5837 5841 5846 5849 5850 5854 5858 5861 5864 5869 5870 5874 5875 5878 5880 5882 5884 5886 5886 5888 5888 5891 5892 5893 5893 5894 5893 5894 5892 5894 5895 5895 5897 5897 5895 5894 5893 5889 5878 5876 5874
5819 5823 5826 5829 5832 5837 5839 5843 5848 5851 5853 5858 5861 5863 5866 5870 5873 5875 5877 5880 5882 5883 5885 5886 5888 5888 5889 5889 5892 5892 5895 5894 5894 5893 5893 5894 5894 5892 5892 5892 5891 5886 5878 5874 5876
5815 5818 5822 5825 5830 5831 5836 5841 5846 5850 5853 5855 5858 5861 5865 5868 5871 5873 5875 5878 5879 5879 5882 5883 5886 5885 5886 5889 5891 5890 5892 5894 5892 5891 5891 5893 5896 5891 5889 5887 5888 5883 5879 5876 5872
5812 5814 5818 5821 5823 5827 5834 5838 5841 5846 5851 5855 5856 5858 5861 5865 5869 5870 5872 5874 5875 5877 5880 5881 5880 5883 5884 5886 5888 5892 5893 5893 5892 5891 5888 5888 5888 5888 5888 5886 5886 5884 5882 5881 5876
5806 5810 5814 5816 5819 5826 5829 5833 5838 5845 5849 5852 5852 5855 5858 5861 5864 5867 5869 5870 5873 5876 5878 5879 5878 5879 5882 5884 5886 5887 5888 5888 5888 5888 5888 5886 5883 5882 5885 5884 5885 5884 5884 5882 5880
5800 5804 5809 5811 5816 5821 5824 5829 5836 5840 5846 5847 5849 5851 5854 5858 5861 5864 5865 5867 5870 5874 5875 5874 5875 5877 5880 5883 5883 5884 5885 5885 5886 5886 5885 5881 5879 5879 5881 5883 5884 5883 5880 5880 5879
5795 5799 5802 5805 5812 5815 5819 5827 5832 5837 5838 5839 5843 5847 5850 5853 5856 5859 5862 5863 5866 5869 5870 5871 5875 5875 5877 5879 5881 5881 5882 5883 5882 5883 5881 5877 5877 5877 5876 5878 5879 5880 5879 5876 5873
5789 5794 5797 5799 5805 5810 5817 5823 5827 5831 5832 5833 5836 5842 5846 5849 5852 5855 5857 5859 5862 5864 5867 5868 5871 5872 5873 5876 5877 5877 5878 5879 5880 5879 5876 5875 5874 5871 5869 5868 5869 5868 5870 5868 5866
5784 5788 5790 5796 5801 5805 5813 5820 5825 5827 5830 5832 5835 5838 5843 5846 5848 5851 5853 5855 5858 5860 5862 5865 5867 5868 5870 5872 5873 5873 5874 5874 5875 5876 5873 5871 5868 5867 5865 5865 5863 5861 5860 5860 5860
5779 5781 5785 5789 5796 5800 5808 5817 5821 5823 5827 5829 5829 5835 5839 5840 5842 5846 5851 5853 5855 5858 5860 5861 5864 5866 5867 5867 5868 5869 5869 5870 5872 5873 5872 5869 5865 5864 5863 5860 5859 5855 5854 5854 5854
5772 5775 5780 5783 5788 5795 5803 5809 5814 5817 5822 5824 5828 5830 5834 5836 5839 5841 5847 5850 5852 5854 5855 5858 5860 5862 5866 5864 5864 5865 5866 5866 5866 5868 5868 5868 5863 5860 5859 5857 5852 5850 5849 5848 5850
5766 5768 5774 5778 5783 5790 5795 5802 5805 5808 5814 5819 5823 5825 5829 5831 5836 5838 5840 5844 5848 5849 5851 5855 5858 5859 5861 5862 5860 5861 5862 5862 5861 5861 5861 5863 5864 5859 5856 5853 5850 5849 5848 5847 5845
5758 5761 5767 5772 5775 5781 5788 5794 5801 5804 5809 5814 5819 5822 5824 5828 5832 5834 5835 5838 5841 5845 5847 5850 5852 5854 5856 5857 5857 5856 5857 5857 5857 5855 5854 5854 5855 5856 5852 5849 5847 5844 5843 5840 5839
5750 5753 5760 5765 5769 5776 5781 5788 5792 5797 5800 5806 5812 5817 5820 5824 5827 5828 5830 5832 5835 5837 5840 5842 5843 5847 5850 5851 5850 5850 5852 5853 5851 5851 5849 5850 5848 5846 5848 5847 5844 5840 5836 5833 5831
5742 5746 5754 5761 5765 5773 5775 5780 5786 5790 5791 5799 5806 5811 5813 5817 5821 5821 5824 5826 5828 5831 5834 5835 5837 5841 5844 5844 5843 5843 5846 5846 5845 5844 5841 5840 5840 5835 5835 5835 5835 5835 5833 5831 5828
5734 5739 5747 5753 5758 5763 5767 5775 5778 5781 5784 5790 5798 5803 5806 5809 5814 5817 5819 5819 5823 5826 5829 5830 5832 5835 5837 5837 5835 5837 5839 5836 5834 5833 5831 5831 5830 5830 5829 5828 5827 5825 5824 5824 5823